DW7199 Weather Reports


Display with metric or nautical units.
time (UTC)temp
F
wind
direction
speed
MPH
gust
MPH
rain 1hr
in
rain 24hr
in
rain mn
in
humidity
%
barometer
mb
20181218133030 32 308 0.0 1.0 0.00 0.00 0.00 95 1022.9
20181218131519 32 308 0.0 1.0 0.00 0.00 0.00 95 1022.6
20181218130033 32 308 0.0 1.0 0.00 0.00 0.00 95 1022.1
20181218124520 32 308 0.0 1.0 0.00 0.00 0.00 95 1021.9
20181218123018 32 308 0.0 1.0 0.00 0.00 0.00 95 1021.8
20181218121542 31 308 0.0 0.0 0.00 0.00 0.00 95 1022.0
20181218120050 31 308 0.0 1.0 0.00 0.00 0.00 95 1021.8
20181218114519 31 308 0.0 1.0 0.00 0.00 0.00 95 1021.6
20181218113025 31 308 0.0 1.0 0.00 0.00 0.00 94 1021.4
20181218111532 31 308 0.0 1.0 0.00 0.00 0.00 94 1021.0
20181218110025 31 308 0.0 1.0 0.00 0.00 0.00 94 1021.6
20181218104514 31 308 0.0 1.0 0.00 0.00 0.00 94 1021.5
20181218103029 31 308 0.0 1.0 0.00 0.00 0.00 94 1021.7
20181218101501 31 308 0.0 1.0 0.00 0.00 0.00 94 1021.9
20181218100154 31 308 0.0 1.0 0.00 0.00 0.00 94 1022.0
20181218094629 31 308 0.0 1.0 0.00 0.00 0.00 94 1021.8
20181218093129 31 308 0.0 1.0 0.00 0.00 0.00 94 1022.1
20181218091612 32 308 0.0 1.0 0.00 0.00 0.00 93 1022.2
20181218090139 32 308 0.0 1.0 0.00 0.00 0.00 93 1022.2
20181218084633 32 308 0.0 0.0 0.00 0.00 0.00 94 1022.5
20181218083205 32 308 0.0 0.0 0.00 0.00 0.00 93 1022.7
20181218081629 32 308 0.0 1.0 0.00 0.00 0.00 93 1022.7
20181218080128 33 308 0.0 0.0 0.00 0.00 0.00 93 1022.9
20181218074644 33 308 0.0 1.0 0.00 0.00 0.00 93 1022.7
20181218073200 33 308 0.0 0.0 0.00 0.00 0.00 93 1022.7
20181218071629 34 308 0.0 0.0 0.00 0.00 0.00 93 1022.8
20181218070128 34 308 0.0 1.0 0.00 0.00 0.00 93 1022.9
20181218064646 34 308 0.0 1.0 0.00 0.00 0.00 92 1023.0
20181218063136 34 308 0.0 1.0 0.00 0.00 0.00 92 1023.1
20181218061622 34 308 0.0 0.0 0.00 0.00 0.00 91 1023.1
20181218060104 34 308 0.0 0.0 0.00 0.00 0.00 91 1023.1
20181218054549 34 308 0.0 0.0 0.00 0.00 0.00 91 1023.3
20181218053113 35 308 0.0 0.0 0.00 0.00 0.00 90 1023.5
20181218051554 35 308 0.0 0.0 0.00 0.00 0.00 90 1023.4
20181218050106 36 308 0.0 0.0 0.00 0.00 0.00 90 1023.5
20181218044549 36 308 0.0 0.0 0.00 0.00 0.00 90 1023.5
20181218043126 36 308 0.0 0.0 0.00 0.00 0.00 90 1023.5
20181218041559 37 308 0.0 0.0 0.00 0.00 0.00 89 1023.5
20181218040115 38 308 0.0 0.0 0.00 0.00 0.00 90 1023.5
20181218034627 38 308 0.0 0.0 0.00 0.00 0.00 90 1023.4
20181218033129 38 308 0.0 0.0 0.00 0.00 0.00 89 1023.4
20181218031616 39 308 0.0 0.0 0.00 0.00 0.00 88 1023.4
20181218030044 39 308 0.0 0.0 0.00 0.00 0.00 87 1023.2
20181218024557 39 308 0.0 0.0 0.00 0.00 0.00 87 1023.0
20181218023051 40 308 0.0 0.0 0.00 0.00 0.00 87 1022.9
20181218021625 40 308 0.0 0.0 0.00 0.00 0.00 85 1023.0
20181218020047 41 308 0.0 0.0 0.00 0.00 0.00 84 1022.9
20181218014559 41 308 0.0 0.0 0.00 0.00 0.00 83 1022.8
20181218013113 42 308 0.0 1.0 0.00 0.00 0.00 81 1022.8
20181218011542 42 308 0.0 0.0 0.00 0.00 0.00 80 1022.8
20181218010046 43 308 0.0 0.0 0.00 0.00 0.00 79 1022.9
20181218004619 44 308 0.0 0.0 0.00 0.00 0.00 78 1022.9
20181218003110 45 308 0.0 0.0 0.00 0.00 0.00 76 1022.8
20181218001547 45 308 0.0 0.0 0.00 0.00 0.00 76 1022.9
20181218000035 46 308 1.0 2.0 0.00 0.00 0.00 74 1023.0
20181217234555 48 308 1.0 2.0 0.00 0.00 0.00 70 1023.0
20181217233052 49 308 0.0 2.0 0.00 0.00 0.00 66 1023.0
20181217231529 51 308 1.0 2.0 0.00 0.00 0.00 64 1022.8
20181217230035 52 308 1.0 4.0 0.00 0.00 0.00 63 1022.7
20181217224601 53 308 2.0 4.0 0.00 0.00 0.00 60 1022.5
20181217223021 54 308 1.0 3.0 0.00 0.00 0.00 58 1022.6
20181217221529 55 308 2.0 4.0 0.00 0.00 0.00 55 1022.4
20181217220118 57 308 3.0 5.0 0.00 0.00 0.00 54 1022.4
20181217214539 58 312 3.0 6.0 0.00 0.00 0.00 53 1022.2
20181217213041 58 310 2.0 5.0 0.00 0.00 0.00 52 1022.3
20181217211555 58 310 0.0 0.0 0.00 0.00 0.00 52 1022.4
20181217210028 58 310 0.0 0.0 0.00 0.00 0.00 52 1022.3
20181217204542 58 310 0.0 0.0 0.00 0.01 0.00 52 1022.3
20181217203039 58 310 0.0 3.0 0.00 0.01 0.00 54 1022.4
20181217201545 58 310 1.0 5.0 0.00 0.01 0.00 54 1022.4
20181217200015 57 310 2.0 6.0 0.00 0.01 0.00 54 1022.5
20181217194523 57 149 1.0 4.0 0.00 0.01 0.00 56 1022.5
20181217193009 57 26 0.0 7.0 0.00 0.01 0.00 55 1022.8
20181217191535 57 10 4.0 7.0 0.00 0.01 0.00 55 1022.9
20181217190007 57 26 2.0 7.0 0.00 0.01 0.00 57 1023.0
20181217184507 56 33 1.0 5.0 0.00 0.01 0.00 58 1023.1
20181217183003 56 48 0.0 3.0 0.00 0.01 0.00 59 1023.4
20181217181746 55 48 3.0 6.0 0.00 0.01 0.00 62 1023.5
20181217180201 55 337 2.0 7.0 0.00 0.01 0.00 60 1023.8
20181217174722 54 324 3.0 5.0 0.00 0.01 0.00 61 1024.3
20181217173146 54 324 3.0 6.0 0.00 0.01 0.00 62 1024.4
20181217171718 53 317 0.0 5.0 0.00 0.01 0.00 67 1024.7
20181217170154 52 287 0.0 0.0 0.00 0.01 0.00 67 1025.0
20181217164624 51 287 0.0 0.0 0.00 0.01 0.00 72 1025.3
20181217163131 50 284 0.0 0.0 0.00 0.01 0.00 78 1025.4
20181217161559 49 283 0.0 0.0 0.00 0.01 0.00 82 1025.6
20181217160057 47 283 0.0 0.0 0.00 0.01 0.00 88 1025.7
20181217154543 45 283 0.0 0.0 0.00 0.01 0.00 94 1025.8
20181217153037 43 283 0.0 0.0 0.00 0.01 0.00 97 1025.6
20181217151533 41 282 0.0 0.0 0.00 0.01 0.00 97 1025.6
20181217150033 38 247 0.0 0.0 0.00 0.01 0.00 97 1025.4
20181217144517 36 247 0.0 0.0 0.00 0.01 0.00 97 1025.3
20181217143012 33 247 0.0 0.0 0.00 0.01 0.00 96 1025.1
20181217141518 32 247 0.0 0.0 0.00 0.01 0.00 96 1024.8
20181217140011 31 247 0.0 0.0 0.00 0.01 0.00 96 1024.9
20181217134507 31 247 0.0 0.0 0.00 0.01 0.00 96 1024.8